This demonstration page uses our WeatherBlox Daily Observations layout. Learn more.

Left ArrowRight Arrow

34.74481, -87.66753

Hourly Observations for December 28, 2020

Temp ( °F °C ) Dew Point ( °F °C ) Humidity (%) Winds ( mph kmh ) Pressure ( in mb ) Visibility ( mi km ) Precip ( " mm )
12:53 am 00:53 Cloudy 53 11.7 35 1.7 51 51 SSW 10 17 30.12 1020 10 16 0.00 0.00
1:53 am 01:53 Cloudy 53 11.7 38 3.3 57 57 SSW 10 17 30.13 1020 10 16 0.00 0.00
2:53 am 02:53 Cloudy 53 11.7 40 4.4 61 61 SW 10 17 30.14 1021 10 16 0.00 0.00
3:53 am 03:53 Cloudy 53 11.7 41 5 64 64 SSW 8 13 30.15 1021 10 16 0.00 0.00
4:14 am 04:14 Cloudy 53 11.7 41 5 64 64 SW 7 11 30.16 1021 10 16 0.00 0.00
4:53 am 04:53 Cloudy 53 11.7 42 5.6 66 66 SW 8 13 30.17 1022 10 16 0.00 0.00
5:53 am 05:53 Cloudy 53 11.7 42 5.6 66 66 SW 7 11 30.18 1022 10 16 0.00 0.00
6:53 am 06:53 Cloudy 53 11.7 43 6.1 69 69 SW 8 13 30.21 1023 10 16 0.00 0.00
7:53 am 07:53 Cloudy 54 12.2 44 6.7 69 69 SW 7 11 30.22 1024 10 16 0.00 0.00
8:53 am 08:53 Cloudy 54 12.2 44 6.7 69 69 WSW 6 9 30.26 1025 10 16 0.00 0.00
9:53 am 09:53 Cloudy 56 13.3 45 7.2 67 67 SW 7 11 30.28 1025 10 16 0.00 0.00
10:53 am 10:53 Cloudy 57 13.9 45 7.2 64 64 WSW 8 13 30.29 1026 10 16 0.00 0.00
11:53 am 11:53 Cloudy 58 14.4 46 7.8 65 65 W 9 15 30.28 1025 10 16 0.00 0.00
12:53 pm 12:53 Mostly Cloudy 59 15 46 7.8 62 62 W 7 11 30.27 1025 10 16 0.00 0.00
1:07 pm 13:07 Partly Cloudy 60 15.6 46 7.8 60 60 WSW 7 11 30.27 1025 10 16 0.00 0.00
1:53 pm 13:53 Mostly Sunny 61 16.1 46 7.8 58 58 SSW 6 9 30.26 1025 10 16 0.00 0.00
2:53 pm 14:53 Mostly Cloudy 61 16.1 45 7.2 56 56 SW 5 7 30.27 1025 10 16 0.00 0.00
3:53 pm 15:53 Sunny 61 16.1 40 4.4 46 46 NW 8 13 30.29 1026 10 16 0.00 0.00
4:53 pm 16:53 Clear 57 13.9 40 4.4 53 53 NNW 6 9 30.32 1027 10 16 0.00 0.00
5:53 pm 17:53 Clear 53 11.7 38 3.3 57 57 NNW 7 11 30.34 1028 10 16 0.00 0.00
6:53 pm 18:53 Clear 52 11.1 36 2.2 55 55 N 5 7 30.35 1028 10 16 0.00 0.00
7:53 pm 19:53 Clear 49 9.4 35 1.7 59 59 VRB 5 7 30.38 1029 10 16 0.00 0.00
8:53 pm 20:53 Clear 47 8.3 34 1.1 61 61 NNE 6 9 30.39 1029 10 16 0.00 0.00
9:53 pm 21:53 Clear 46 7.8 33 0.6 61 61 NNE 3 6 30.38 1029 10 16 0.00 0.00
10:53 pm 22:53 Clear 44 6.7 33 0.6 65 65 NNE 3 6 30.39 1029 10 16 0.00 0.00
11:53 pm 23:53 Clear 43 6.1 33 0.6 68 68 NE 7 11 30.39 1029 10 16 0.00 0.00

Powered by AerisWeather